User: anonymous   Login
Location: Ithaca
(42.4410°N, 76.4970°W)
Time: 10:52:49
(UTC-05:00)
Language:

Cosmos 1271 Rocket - Orbit

View from above orbital plane
View from above orbital plane
View from above satellite
View from above satellite

Ground track
Ground track

The orbit data is extracted from the following two-line orbital elements,

1 12465U 81046B   14326.34866015  .00004608  00000-0  27206-3 0  3965
2 12465 081.2487 020.0077 0036928 209.9352 149.9763 15.10750018825668
Epoch (UTC): 22 November 2014 08:22:04
Eccentricity: 0.0036928
inclination: 81.2487°
perigee height: 508 km
apogee height: 559 km
right ascension of ascending node: 20.0077°
argument of perigee: 209.9352°
revolutions per day: 15.10750018
mean anomaly at epoch: 149.9763°
orbit number at epoch: 82566

The dashed part of the orbit path shows where the satellite is in the earth's shadow,  

DLR